RH
34 34 32 31 30 27 25 24 23 24 24 24 24 24 24 23 22 21 20 19 18 16 14 13 12 12 12 11 10 11 12 13 17 30 52 64 96 94 76 72 68 76 61
36 35 33 30 27 26 26 26 26 26 25 24 23 23 24 23 22 22 21 20 20 19 18 17 17 16 15 13 13 12 11 14 16 24 30 38 58 80 96 84 82 76 76
37 34 32 30 29 28 28 28 27 27 27 26 26 24 23 23 22 22 21 20 19 19 19 19 19 19 19 18 16 16 16 20 20 23 28 33 42 67 80 90 86 83 78
35 33 32 32 32 31 32 31 31 29 28 27 25 23 22 20 19 18 18 18 19 19 19 19 20 20 21 21 21 21 22 25 24 23 25 28 33 42 60 79 94 94 85
34 34 35 36 36 36 36 34 33 32 30 26 23 21 20 20 20 20 20 18 17 17 18 19 20 22 24 26 28 29 29 30 30 31 29 28 29 30 38 48 76 88 84
36 38 40 41 41 40 38 36 34 32 29 26 24 23 23 22 20 18 17 17 17 17 16 17 20 23 26 30 34 36 37 38 39 36 35 33 33 35 36 38 44 68 84
40 43 45 46 45 42 40 37 35 33 30 29 28 25 22 21 17 15 16 16 16 17 19 20 23 27 32 40 45 44 44 43 42 42 39 38 39 36 36 36 36 42 61
45 48 51 50 47 44 41 39 36 32 31 30 26 24 23 19 15 14 15 17 19 20 21 25 31 33 40 54 56 55 54 50 48 45 47 43 43 46 39 36 38 39 45
50 52 53 52 49 45 41 38 37 35 30 29 26 25 21 16 15 14 16 19 19 22 24 33 35 37 42 60 66 66 62 60 60 60 55 51 49 48 49 39 39 38 43
49 52 53 52 48 44 42 41 39 35 32 29 26 20 17 18 17 16 18 20 20 23 27 35 38 36 43 61 71 72 71 72 73 72 67 65 58 53 50 47 40 43 41
50 53 53 52 50 48 46 44 42 34 31 27 20 19 19 21 20 19 18 20 20 24 27 30 37 37 43 62 72 80 81 81 80 80 78 74 68 61 55 51 47 47 45
51 54 55 53 52 51 47 45 39 34 30 23 22 21 21 23 24 21 21 22 24 23 26 29 33 37 45 63 65 76 78 80 84 83 82 85 83 74 65 57 48 53 54
54 58 59 57 56 52 50 48 39 34 28 26 25 24 23 24 27 26 23 23 26 27 28 30 35 36 40 52 60 70 77 83 90 90 87 88 90 84 77 68 57 56 60
58 59 59 59 59 58 55 46 36 31 29 27 27 27 26 26 28 31 28 25 26 29 29 30 34 38 36 50 51 63 74 83 93 94 95 94 91 88 84 77 74 64 60
60 63 65 64 62 60 53 38 34 32 30 30 30 29 29 29 30 32 34 30 28 28 31 33 33 37 36 44 45 54 70 76 84 96 96 97 94 96 96 86 70 69 75
64 68 70 68 65 60 45 37 35 33 32 32 32 32 33 33 33 34 35 36 34 30 31 35 35 35 36 38 46 44 55 72 75 83 95 97 97 97 97 94 95 89 89
67 70 70 68 64 51 42 38 36 34 34 35 35 37 38 37 37 37 38 38 40 40 37 36 37 36 36 36 40 44 45 58 71 77 88 97 97 96 97 91 97 98 81
68 71 71 64 56 45 41 39 36 35 37 38 38 39 40 41 43 42 40 38 39 40 42 41 40 38 36 36 37 40 41 48 66 69 81 89 97 97 97 96 97 97 97
72 71 67 57 45 43 41 37 36 38 39 39 40 44 44 41 42 40 39 38 37 37 38 41 41 40 40 37 37 38 39 44 57 62 70 80 85 95 97 96 98 97 92
70 65 50 46 44 40 37 36 39 40 40 42 46 46 42 39 39 36 35 34 33 34 35 38 41 41 40 42 39 37 39 40 44 62 60 68 74 84 96 97 97 96 98
55 47 45 42 39 37 37 39 40 40 43 44 43 36 31 29 31 29 29 29 30 30 32 35 38 39 42 41 42 41 38 41 40 46 56 59 66 73 88 97 96 96 97
44 43 40 39 36 36 40 41 43 43 40 32 27 24 22 21 24 26 26 28 28 29 30 30 32 36 40 42 43 42 43 39 39 41 50 51 58 63 72 84 96 96 93
42 40 37 35 39 43 43 43 43 37 28 22 19 18 18 20 22 24 25 26 29 31 33 33 32 34 37 41 43 45 43 42 38 40 42 49 50 55 58 70 78 90 92
39 35 38 42 44 44 45 44 32 23 18 17 17 18 19 20 22 24 27 29 33 35 37 36 35 35 38 41 43 44 46 44 42 39 40 41 42 47 54 58 65 73 83
37 41 44 45 45 44 39 28 20 16 16 17 18 19 20 21 22 24 30 33 37 39 41 41 40 40 40 43 46 49 49 51 48 44 40 39 40 41 42 47 55 59 65
44 46 46 47 45 39 28 19 16 17 18 19 20 21 22 23 24 25 26 32 36 38 40 42 45 44 47 47 49 52 53 52 53 50 47 43 42 44 48 48 45 48 51